[[{"header":{"parameterUnit":"m.s-1","parameterCategory":1,"la1":30.2991,"la2":30.254,"lo1":-89.0895,"lo2":-89.0444,"dy":0.0017,"dx":0.0017,"nx":28,"ny":28,"refTime":"2023-10-25T09:00:00:Z","depth":0,"parameterNumber":2,"parameterNumberName":"U-component_of_WINDS"},"data":[0,0,0,0,0,0,0,0,0,0,0,0,0,0,0,0,0,0,0,0,0,0,0,0,0,0,0,0,0,0,0,0,0,0,0,0,0,0,0,0,0,0,0,0,0,0,0,0,0,0,0,0,0,0,0,0,0,0,-5.1949,-5.195,0,-5.2098,-5.2099,-5.2101,-5.2062,-5.2059,-5.2056,-5.2053,-5.2209,-5.2216,-5.2223,0,0,0,0,0,0,0,0,0,0,0,0,0,-5.1634,-5.164,-5.1949,-5.1951,-5.1952,-5.2097,-5.2099,-5.2101,-5.2063,-5.2059,-5.2055,-5.2052,-5.2207,-5.2215,-5.2223,0,0,0,0,0,0,0,0,0,0,0,0,0,-5.1776,-5.1642,-5.1948,-5.195,-5.1952,-5.2097,-5.2099,-5.2102,-5.2063,-5.2059,-5.2055,-5.205,-5.2204,-5.2214,-5.2225,-5.2377,0,0,-5.2256,-5.2261,0,0,0,0,0,0,0,0,-5.1768,-5.1787,-5.1948,-5.1951,-5.1953,-5.2057,-5.2046,-5.2194,-5.2065,-5.2021,-5.2053,-5.2048,-5.2162,-5.2176,-5.2214,-5.2385,-5.2391,-5.2257,-5.2263,-5.2268,-5.2271,0,0,0,0,0,0,0,-5.1758,-5.1781,-5.2008,-5.1951,-5.1953,-5.1945,-5.196,-5.2074,-5.2115,-5.2025,-5.2022,-5.204,-5.2163,-5.2204,-5.2217,-5.2394,-5.2257,-5.2266,-5.2272,-5.2276,-5.2699,-5.2703,0,0,0,0,0,0,-5.1746,-5.1773,-5.2003,-5.2012,-5.1847,-5.1954,-5.1971,-5.2028,-5.2114,-5.2122,-5.2044,-5.2038,-5.2188,-5.2205,-5.2222,-5.2407,-5.2268,-5.2278,-5.2283,-5.2694,-5.27,-5.2705,0,0,0,0,0,0,-5.174,-5.1767,-5.1997,-5.1892,-5.1921,-5.1964,-5.2028,-5.2033,-5.2074,-5.2128,-5.2136,-5.2078,-5.2185,-5.2208,-5.2339,-5.2412,-5.2282,-5.2292,-5.2688,-5.2696,-5.2703,-5.2778,0,0,0,0,0,0,-5.1731,-5.1765,-5.1823,-5.1894,-5.1926,-5.211,-5.2033,-5.2039,-5.2092,-5.2085,-5.2162,-5.2171,-5.2184,-5.2324,-5.2349,-5.2424,-5.23,-5.2682,-5.2691,-5.27,-5.2769,-5.2787,-5.2802,0,0,0,0,0,-5.172,-5.1838,-5.1826,-5.1854,-5.1999,-5.2114,-5.2133,-5.2145,-5.2098,-5.2156,-5.2191,-5.2168,-5.24,-5.2338,-5.2366,-5.2445,-5.2677,-5.2689,-5.2699,-5.2762,-5.2784,-5.2802,0,0,0,0,0,0,-5.1776,-5.1848,-5.1834,-5.1979,-5.2041,-5.2108,-5.2182,-5.2168,-5.2245,-5.2236,-5.2248,-5.2266,-5.24,-5.2436,-5.2365,-5.2598,-5.2532,-5.2549,-5.2569,-5.2591,-5.2607,-5.2596,-5.2308,0,0,0,0,0,-5.1805,-5.1891,-5.195,-5.2073,-5.2104,-5.2138,-5.2189,-5.2192,-5.2257,-5.2283,-5.2328,-5.2393,-5.248,-5.2537,-5.2621,-5.2774,-5.2791,-5.2843,-5.2859,-5.2873,-5.2888,-5.2972,-5.2996,-5.2742,-5.2742,-5.2742,0,0,-5.1866,-5.1916,-5.197,-5.2085,-5.2133,-5.2224,-5.216,-5.2258,-5.2326,-5.2299,-5.2425,-5.246,-5.2533,-5.2677,-5.2742,-5.271,-5.2962,-5.2887,-5.2897,-5.2905,-5.2986,-5.301,-5.3032,-5.275,-5.2748,-5.2747,0,0,-5.2024,-5.207,-5.2177,-5.2227,-5.23,-5.2322,-5.2348,-5.2417,-5.2439,-5.2566,-5.2548,-5.2629,-5.2779,-5.2832,-5.2879,-5.3058,-5.304,-5.3085,-5.3172,-5.3255,-5.3275,-5.3292,-5.3357,-5.3379,-5.31,-5.31,-5.31,0,-5.2091,-5.2225,-5.2234,-5.2335,-5.2386,-5.2365,-5.2474,-5.2522,-5.262,-5.2656,-5.2619,-5.2808,-5.2856,-5.3011,-5.3055,-5.3094,-5.3124,-5.3076,-5.3271,-5.3289,-5.3305,-5.3367,-5.3391,-5.3105,-5.3105,-5.3104,-5.3104,0,-5.2304,-5.2398,-5.2476,-5.2569,-5.263,-5.2734,-5.276,-5.2821,-5.282,-5.2846,-5.2976,-5.3033,-5.3128,-5.3165,-5.3165,-5.3322,-5.33,-5.3267,-5.3201,-5.3334,-5.3392,-5.3416,-5.3112,-5.3111,-5.3109,-5.3108,0,0,-5.25,-5.2598,-5.2627,-5.2669,-5.2749,-5.2822,-5.2927,-5.3018,-5.307,-5.3139,-5.3227,-5.3355,-5.3325,-5.3378,-5.3384,-5.3457,-5.3596,-5.3415,-5.3417,-5.3447,-5.3772,-5.3796,-5.3823,-5.3584,-5.3589,-5.3592,-5.3766,0,-5.2665,-5.2846,-5.2858,-5.3023,-5.311,-5.3092,-5.3183,-5.3242,-5.327,-5.3349,-5.338,-5.3471,-5.3425,-5.3457,-5.3527,-5.3564,-5.3661,-5.3551,-5.3667,-5.3671,-5.3649,-5.3853,-5.3878,-5.4039,-5.3788,-5.3792,-5.3795,0,-5.2881,-5.2955,-5.3128,-5.3196,-5.3233,-5.3314,-5.34,-5.3475,-5.3543,-5.3559,-5.3618,-5.3615,-5.3723,-5.3653,-5.3803,-5.3729,-5.3777,-5.3802,-5.3809,-5.382,-5.3741,-5.3869,-5.409,-5.4114,-5.3831,-5.3828,-5.3825,0,-5.3006,-5.315,-5.3272,-5.3309,-5.3392,-5.3449,-5.3487,-5.355,-5.3605,-5.368,-5.3716,-5.3803,-5.3851,-5.392,-5.3941,-5.3888,-5.4091,-5.4022,-5.4107,-5.4107,-5.415,-5.4147,-5.4382,-5.4182,-5.4182,-5.4181,-5.4181,0,-5.3189,-5.3295,-5.3329,-5.3405,-5.3524,-5.3538,-5.3656,-5.369,-5.3747,-5.3829,-5.382,-5.3897,-5.392,-5.4003,-5.402,-5.4142,-5.4164,-5.418,-5.4183,-5.4181,-5.4179,-5.4212,-5.4201,-5.4187,-5.4186,-5.4185,-5.4184,0,-5.3349,-5.3376,-5.3508,-5.3575,-5.3595,-5.368,-5.3738,-5.3811,-5.3838,-5.3942,-5.3968,-5.401,-5.4107,-5.4134,-5.4251,-5.4262,-5.4406,-5.4399,-5.4382,-5.4382,-5.4465,-5.4457,-5.4729,-5.4766,-5.4542,-5.4545,-5.4546,0,-5.3463,-5.3544,-5.3621,-5.3674,-5.3714,-5.3801,-5.3857,-5.3874,-5.3933,-5.4017,-5.408,-5.4175,-5.4252,-5.4408,-5.445,-5.4539,-5.4534,-5.4624,-5.4548,-5.4543,-5.4535,-5.453,-5.4539,-5.4638,-5.464,-5.4642,-5.4644,0,-5.3663,-5.3672,-5.3752,-5.3837,-5.3903,-5.3972,-5.4037,-5.4082,-5.4109,-5.4176,-5.4274,-5.4333,-5.4452,-5.4547,-5.4638,-5.4678,-5.4666,-5.4667,-5.4692,-5.4689,-5.4676,-5.4684,-5.4421,-5.4661,-5.4659,-5.4658,-5.4657,-5.4656,-5.3803,-5.3875,-5.394,-5.4029,-5.408,-5.4142,-5.4214,-5.4249,-5.4331,-5.4428,-5.4434,-5.454,-5.4608,-5.4728,-5.4773,-5.4858,-5.4831,-5.4866,-5.4875,-5.4884,-5.489,-5.4663,-5.4874,-5.4874,-5.4873,-5.4873,-5.4873,0,-5.4002,-5.4043,-5.4125,-5.4217,-5.4288,-5.4269,-5.4341,-5.4402,-5.4495,-5.4559,-5.4634,-5.4748,-5.484,-5.489,-5.4982,-5.5041,-5.5038,-5.5064,-5.506,-5.5069,-5.4909,-5.4878,-5.5065,-5.5065,-5.5065,-5.5065,-5.5065,-5.5065,-5.4114,-5.4234,-5.4252,-5.4398,-5.4439,-5.4542,-5.4584,-5.4642,-5.4692,-5.4819,-5.4895,-5.4926,-5.4984,-5.5081,-5.5166,-5.5178,-5.5212,-5.5242,-5.5252,-5.51,-5.5081,-5.5062,-5.5033,-5.525,-5.525,-5.5405,-5.5407,-5.5408]},{"header":{"parameterUnit":"m.s-1","parameterCategory":1,"la1":30.2991,"la2":30.254,"lo1":-89.0895,"lo2":-89.0444,"dy":0.0017,"dx":0.0017,"nx":28,"ny":28,"refTime":"2023-10-25T09:00:00:Z","depth":0,"parameterNumber":3,"parameterNumberName":"V-component_of_WINDS"},"data":[0,0,0,0,0,0,0,0,0,0,0,0,0,0,0,0,0,0,0,0,0,0,0,0,0,0,0,0,0,0,0,0,0,0,0,0,0,0,0,0,0,0,0,0,0,0,0,0,0,0,0,0,0,0,0,0,0,0,0.9985,0.9987,0,1.0157,1.0159,1.0161,1.0224,1.0224,1.0223,1.0223,1.0402,1.0407,1.0413,0,0,0,0,0,0,0,0,0,0,0,0,0,0.9719,0.9723,0.9985,0.9987,0.999,1.0157,1.0159,1.0161,1.0224,1.0224,1.0223,1.0222,1.04,1.0407,1.0413,0,0,0,0,0,0,0,0,0,0,0,0,0,0.9857,0.9725,0.9985,1.0041,1.0048,1.0156,1.0159,1.0162,1.0224,1.0224,1.0223,1.0222,1.0398,1.0406,1.0414,1.048,0,0,1.0438,1.0442,0,0,0,0,0,0,0,0,0.9849,0.9866,1.0031,1.0037,1.0045,1.0168,1.0131,1.0269,1.0225,1.0158,1.0223,1.0222,1.0325,1.0339,1.0373,1.0489,1.0496,1.0439,1.0444,1.0447,1.0449,0,0,0,0,0,0,0,0.9839,0.986,1.0053,1.0033,1.0042,1.006,1.0078,1.0157,1.0244,1.0163,1.0168,1.0188,1.0329,1.0366,1.0378,1.0499,1.0439,1.0446,1.0451,1.0454,1.0682,1.0683,0,0,0,0,0,0,0.982,0.9851,1.0048,1.0058,0.9943,1.0065,1.0086,1.013,1.0244,1.026,1.0188,1.019,1.0352,1.0369,1.0385,1.0473,1.0447,1.0455,1.0459,1.068,1.0682,1.0683,0,0,0,0,0,0,0.9814,0.9836,1.0041,0.9956,0.9984,1.0071,1.0119,1.0133,1.017,1.0262,1.0279,1.0209,1.0352,1.0373,1.0457,1.048,1.0458,1.0465,1.0679,1.0681,1.0683,1.0647,0,0,0,0,0,0,0.9806,0.9834,0.9858,0.9956,0.9988,1.0108,1.012,1.0137,1.0183,1.0187,1.0286,1.0302,1.0353,1.0444,1.0465,1.049,1.0472,1.0677,1.068,1.0682,1.0647,1.0648,1.0648,0,0,0,0,0,0.9796,0.9841,0.9859,0.9883,1.002,1.0109,1.0128,1.0185,1.0184,1.0211,1.0271,1.0299,1.0473,1.0452,1.0476,1.0504,1.0676,1.0679,1.0682,1.0646,1.0648,1.0648,0,0,0,0,0,0,0.9745,0.9855,0.9876,0.9954,1.0022,1.012,1.0155,1.0183,1.0253,1.0254,1.0324,1.0346,1.0424,1.0472,1.0447,1.0576,1.0577,1.0584,1.0542,1.0544,1.0545,1.0532,1.0478,0,0,0,0,0,0.9742,0.9804,0.9898,0.9958,0.9991,1.0067,1.0108,1.0146,1.0219,1.0249,1.0314,1.0386,1.0458,1.0503,1.0574,1.0654,1.0678,1.0685,1.0686,1.0686,1.0693,1.0743,1.0748,1.0693,1.0693,1.0693,0,0,0.9739,0.9807,0.9841,0.995,1.0006,1.0071,1.009,1.0157,1.0207,1.0259,1.0342,1.0393,1.0478,1.0561,1.06,1.0603,1.0713,1.069,1.0689,1.0696,1.0746,1.0751,1.0756,1.0695,1.0694,1.0694,0,0,0.9765,0.9821,0.9879,0.9936,1.0022,1.0072,1.0086,1.018,1.0216,1.03,1.0342,1.0403,1.0523,1.0583,1.0629,1.0681,1.0711,1.0702,1.0708,1.0755,1.076,1.0764,1.0786,1.0793,1.0708,1.0708,1.0708,0,0.975,0.9847,0.9906,0.9971,1.0019,1.0069,1.013,1.0183,1.0287,1.0321,1.0322,1.0477,1.0537,1.0636,1.0649,1.0683,1.0704,1.0692,1.0754,1.0759,1.0764,1.0786,1.0793,1.0707,1.0707,1.0707,1.0707,0,0.9826,0.9893,0.993,1.003,1.0082,1.0144,1.0215,1.0261,1.0295,1.0346,1.0434,1.0508,1.0596,1.0622,1.0656,1.0728,1.0727,1.074,1.0743,1.0767,1.0789,1.0797,1.0705,1.0705,1.0706,1.0706,0,0,0.9825,0.9957,0.997,1.0017,1.0117,1.0171,1.0237,1.0323,1.0363,1.0434,1.0493,1.0595,1.0609,1.0662,1.0703,1.0745,1.0786,1.0754,1.0757,1.076,1.0874,1.0865,1.0873,1.0805,1.0807,1.0808,1.0868,0,0.9866,0.9986,1.0042,1.0137,1.0202,1.0252,1.0311,1.0379,1.043,1.0494,1.055,1.0623,1.0633,1.0666,1.0709,1.0771,1.081,1.0768,1.0865,1.0867,1.0844,1.0884,1.0875,1.0927,1.0876,1.0877,1.0879,0,0.993,1.0002,1.0103,1.0198,1.0228,1.0279,1.0364,1.0423,1.0504,1.0538,1.0597,1.0638,1.0713,1.0709,1.0815,1.0785,1.0829,1.0865,1.0869,1.0882,1.0876,1.0901,1.0944,1.0953,1.0892,1.0891,1.089,0,0.9923,1.0044,1.0122,1.016,1.0272,1.0308,1.0356,1.0435,1.0484,1.0559,1.0592,1.0675,1.072,1.0785,1.0848,1.0838,1.095,1.095,1.0983,1.0982,1.1006,1.1004,1.1059,1.1029,1.1028,1.1028,1.1028,0,0.9965,1.0026,1.012,1.0168,1.024,1.0304,1.0374,1.0427,1.0497,1.0559,1.0607,1.0664,1.0742,1.081,1.086,1.0943,1.0962,1.0994,1.1007,1.0992,1.0988,1.1022,1.1022,1.103,1.103,1.103,1.1029,0,0.9968,1.0033,1.0122,1.0221,1.0248,1.0296,1.0382,1.0432,1.0485,1.0563,1.0585,1.0669,1.0752,1.0821,1.0929,1.0963,1.105,1.1064,1.1023,1.103,1.1061,1.1058,1.1143,1.1159,1.1114,1.1114,1.1115,0,0.9992,1.004,1.0145,1.0189,1.0237,1.0306,1.0357,1.0424,1.0475,1.0572,1.0612,1.0697,1.077,1.09,1.0973,1.1057,1.1075,1.1099,1.1088,1.1072,1.108,1.1077,1.1084,1.11,1.11,1.1101,1.1101,0,1.0028,1.0058,1.0128,1.0211,1.027,1.0338,1.0408,1.0442,1.0522,1.0578,1.0663,1.0719,1.083,1.0917,1.1009,1.1062,1.1097,1.1103,1.1116,1.1102,1.1078,1.1095,1.1028,1.1102,1.1101,1.1101,1.1101,1.1101,1.0044,1.0091,1.0173,1.025,1.031,1.0375,1.0428,1.0488,1.056,1.0655,1.0691,1.0779,1.0862,1.099,1.1043,1.1115,1.1119,1.1137,1.1142,1.1146,1.1146,1.1064,1.1132,1.1132,1.1132,1.1132,1.1132,0,1.0085,1.014,1.0211,1.0308,1.037,1.0395,1.0475,1.0526,1.0602,1.0676,1.0747,1.0847,1.0931,1.1011,1.11,1.1143,1.1161,1.1164,1.1163,1.1176,1.1135,1.1116,1.1148,1.1148,1.1148,1.1148,1.1148,1.1148,1.0114,1.0195,1.0236,1.0349,1.0405,1.0491,1.0535,1.0596,1.0656,1.0765,1.0835,1.0886,1.0964,1.106,1.1141,1.1162,1.1195,1.1194,1.122,1.1181,1.1178,1.1176,1.1159,1.12,1.12,1.1256,1.1257,1.1257]}]]